TimeEDT,TemperatureF,Dew PointF,Humidity,Sea Level PressureIn,VisibilityMPH,Wind Direction,Wind SpeedMPH,Gust SpeedMPH,PrecipitationIn,Events,Conditions,WindDirDegrees,DateUTC
12:53 AM,79.0,66.9,66,29.84,10.0,SW,8.1,-,N/A,,Scattered Clouds,220,2013-07-21 04:53:00
1:53 AM,77.0,68.0,74,29.84,10.0,SSW,6.9,-,N/A,,Mostly Cloudy,210,2013-07-21 05:53:00
2:53 AM,75.0,69.1,82,29.84,10.0,SSW,6.9,-,N/A,,Clear,200,2013-07-21 06:53:00
3:53 AM,73.9,70.0,87,29.83,9.0,Calm,Calm,-,N/A,,Clear,0,2013-07-21 07:53:00
4:53 AM,73.9,70.0,87,29.84,8.0,Calm,Calm,-,N/A,,Clear,0,2013-07-21 08:53:00
5:53 AM,73.0,70.0,90,29.86,6.0,Calm,Calm,-,N/A,,Clear,0,2013-07-21 09:53:00
6:53 AM,73.9,71.1,91,29.86,6.0,SW,4.6,-,N/A,,Scattered Clouds,230,2013-07-21 10:53:00
7:53 AM,75.9,71.1,85,29.89,7.0,NW,3.5,-,N/A,,Mostly Cloudy,310,2013-07-21 11:53:00
8:53 AM,75.9,71.1,85,29.89,7.0,North,3.5,-,N/A,,Partly Cloudy,360,2013-07-21 12:53:00
9:53 AM,79.0,71.1,77,29.89,8.0,ENE,3.5,-,N/A,,Partly Cloudy,70,2013-07-21 13:53:00
10:08 AM,78.8,71.6,78,29.92,8.0,East,3.5,-,N/A,,Mostly Cloudy,90,2013-07-21 14:08:00
10:20 AM,80.6,71.6,74,29.93,8.0,Calm,Calm,-,N/A,,Mostly Cloudy,0,2013-07-21 14:20:00
10:53 AM,82.0,71.1,69,29.90,10.0,ENE,6.9,-,N/A,,Overcast,60,2013-07-21 14:53:00
11:04 AM,82.4,71.6,70,29.93,10.0,East,8.1,-,N/A,,Mostly Cloudy,100,2013-07-21 15:04:00
11:53 AM,82.9,71.1,67,29.91,10.0,ESE,4.6,-,N/A,,Mostly Cloudy,120,2013-07-21 15:53:00
12:04 PM,84.2,71.6,66,29.93,10.0,East,4.6,-,N/A,,Mostly Cloudy,90,2013-07-21 16:04:00
12:16 PM,84.2,71.6,66,29.94,10.0,East,5.8,-,N/A,,Mostly Cloudy,90,2013-07-21 16:16:00
12:23 PM,84.2,71.6,66,29.94,10.0,ENE,4.6,-,N/A,,Overcast,70,2013-07-21 16:23:00
12:53 PM,84.0,70.0,63,29.91,10.0,Variable,4.6,-,N/A,,Mostly Cloudy,0,2013-07-21 16:53:00
1:53 PM,86.0,70.0,59,29.91,10.0,ENE,4.6,-,N/A,,Clear,70,2013-07-21 17:53:00
2:53 PM,86.0,70.0,59,29.90,10.0,ENE,4.6,-,N/A,,Scattered Clouds,60,2013-07-21 18:53:00
3:53 PM,84.9,69.1,59,29.89,10.0,East,4.6,-,0.00,Rain,Light Rain,80,2013-07-21 19:53:00
4:53 PM,77.0,72.0,84,29.88,5.0,SE,5.8,-,0.04,,Haze,130,2013-07-21 20:53:00
5:53 PM,78.1,72.0,81,29.89,10.0,SSE,5.8,-,N/A,,Clear,160,2013-07-21 21:53:00
6:53 PM,77.0,68.0,74,29.90,10.0,SE,5.8,-,N/A,,Clear,130,2013-07-21 22:53:00
7:53 PM,75.9,69.1,79,29.90,10.0,ESE,4.6,-,N/A,,Partly Cloudy,120,2013-07-21 23:53:00
8:53 PM,75.0,70.0,84,29.92,9.0,SE,3.5,-,N/A,,Clear,130,2013-07-22 00:53:00
9:53 PM,75.0,71.1,87,29.92,7.0,South,4.6,-,N/A,,Clear,180,2013-07-22 01:53:00
10:53 PM,75.0,71.1,87,29.92,8.0,Calm,Calm,-,N/A,,Clear,0,2013-07-22 02:53:00
11:53 PM,73.9,70.0,87,29.93,8.0,Calm,Calm,-,N/A,,Clear,0,2013-07-22 03:53:00